CZ-6A DEB, 54544

Orbit data source: Space-Track

CZ-6A DEB, 54544 is space debris in SSO originally from a launch on Fri, 11 Nov 2022 UTC launched from the Taiyaun Space Center, China (TSC). Debris objects in space refer to the collection of defunct objects orbiting the Earth. Examples of debris include non-operational satellites, rocket bodies, and fragments generated from explosions, collisions, or faulty payload assembly.

Loading next visibility...
Identifier
54544, 2022-151KU
Orbit
SSO
Country
Flag of CNCN / PRC
Related business
Manufacturer
SAST
Mission
Spacecraft
Bus & Motor
Unknown
Mass
Unknown
Launch date (UTC)
2022-11-11 (4 years ago)
Launch vehicle
Unknown
Launch site
Taiyaun Space Center, China (TSC)
Object type
Payload
Rocket body
Debris
Shape & HBR
Unknown shape, 0.3 m
Radar Cross Section
Medium (>0.1 m² and <1 m²)

Expand to show TLE details & history
Last TLE update: 2 days ago

TLE from 2 days ago
0 CZ-6A DEB
1 54544U 22151KU  26171.31969432  .00000166  00000-0  10209-3 0  9995
2 54544  98.7883 184.1520 0042822 349.6985  10.3308 14.17755898186162
Epoch: 2026-06-20T07:40Z
TLE epoch observation values (Epoch: 2026-06-20T07:40:21.589Z)
Latitude
-0.00004°
Longitude
160.52603°
Altitude
805.481 km
Speed
7.466 km/s
True Right ascension
12h 16m 36s
True Declination
0° 00' 00"
Sunlit
Object was in daylight at epoch
Visualization orbit readout
Latitude
Unknown
Longitude
Unknown
Altitude
Unknown
Speed
Unknown
Apparent Right ascension
Unknown
Apparent Declination
Unknown
Sunlit
N/A
Visualization observer readout
Local Sidereal Time
21:23:48
Azimuth
Unknown
Elevation
Unknown
Doppler factor
Unknown
Orbital elements
Apogee altitude
860.985 km
Perigee altitude
799.25 km
Semi-major axis
7,208.254 km
Eccentricity
0.00428
Inclination
98.7883°
RAAN
184.152°
Arg. of periapsis
349.6985°
True anomaly
10.41926°
Mean anomaly
10.3308°
Eccentric anomaly
10.37499°
Mean motion
3.54648 °/min
Orbital period
101.51 mins
BSTAR
0.00010209
Loading maneuver chart data...
Computing Atmospheric mass density...
Loading historical data...
Loading historical data...
Loading historical data...
Loading historical data...
Loading historical data...
Loading historical data...
Loading historical data...

Documentation

Showing up to 5 results
|